Location: Cul de Sac
(18.0387°N, 63.0654°W)
Time: 18:21:17
(UTC+00:00)

Centaur AC-119 - Pass Details

Date: 29 October 2020
Orbit: 263 x 13996 km, 26.8° (Epoch: 23 November)

Event Time Altitude Azimuth Distance (km) Brightness Sun altitude
Rises 22:32:10 0° 284° (WNW) 5,865 8.8 -12.7°
Reaches altitude 10° 22:38:19 10° 294° (WNW) 3,203 7.1 -14.1°
Maximum altitude 22:43:39 26° 350° (N) 1,144 3.9 -15.4°
Enters shadow 22:44:58 20° 28° (NNE) 1,117 3.5 -15.7°
